Meridianville, AL

5:08 AM CDT on August 28, 2016 (GMT -0500)
Huntsville Madison

Weather History for KMDQ - August, 2013

Change the Weather History Date:

Wednesday, August 14, 2013

  Actual Average (KHSV) Record (KHSV)
Temperature  
Mean Temperature 71 °F 80 °F  
Max Temperature 80 °F 91 °F 103 °F (1954)
Min Temperature 62 °F 70 °F 52 °F (2004)
Degree Days  
Heating Degree Days 0 0  
Month to date heating degree days 0  
Since 1 June heating degree days 1  
Since 1 July heating degree days 0  
Cooling Degree Days 6 16  
Month to date cooling degree days 224  
Year to date cooling degree days 1349  
Since 1 June cooling degree days 1086  
Growing Degree Days 21 (Base 50)    
Moisture  
Dew Point 59 °F    
Average Humidity 66    
Maximum Humidity 88    
Minimum Humidity 39    
Precipitation  
Precipitation 0.00 in 0.11 in 1.55 in (1901)
Month to date precipitation 1.69  
Year to date precipitation 34.40  
Snow  
Snow 0.00 in - - ()
Month to date snowfall  
Since 1 June snowfall  
Since 1 July snowfall  
Snow Depth -    
Sea Level Pressure  
Sea Level Pressure 30.02 in    
Wind  
Wind Speed 5 mph (North)    
Max Wind Speed 13 mph    
Max Gust Speed 17 mph    
Visibility 9 miles    
Events      
T = Trace of Precipitation, MM = Missing Value Source: NWS Daily Summary

Daily Weather History Graph

Daily Weather History Graph

Search for Another Location

Airport or City:

Trip Planner

Search our weather history database for the weather conditions in past years. The results will help you decide how hot, cold, wet, or windy it might be!

Date:

Astronomy

Aug. 14, 2013 Rise Set
Actual Time 6:05 AM CDT 7:35 PM CDT
Civil Twilight 5:39 AM CDT 8:01 PM CDT
Nautical Twilight 5:06 AM CDT 8:34 PM CDT
Astronomical Twilight 4:33 AM CDT 9:07 PM CDT
Moon 1:43 PM CDT (8/14) No Moon Set
Length of Visible Light 14h 22m
Length of Day
13h 29m
First Quarter, 53% of the Moon is Illuminated
Aug 14
First Quarter
Aug 20
Full
Aug 28
Last Quarter
Sep 5
New
Sep 12
First Quarter

Hourly Weather History & Observations

Time (CDT) Temp. Heat Index Dew Point Humidity Pressure Visibility Wind Dir Wind Speed Gust Speed Precip Events Conditions
12:15 AM 71.6 °F - 64.4 °F 78% 29.98 in 10.0 mi North 4.6 mph - N/A   Scattered Clouds
12:35 AM 71.6 °F - 64.4 °F 78% 29.98 in 10.0 mi North 5.8 mph - N/A   Clear
12:55 AM 69.8 °F - 64.4 °F 83% 29.97 in 10.0 mi North 3.5 mph - N/A   Clear
1:15 AM 69.8 °F - 64.4 °F 83% 29.97 in 10.0 mi North 4.6 mph - N/A   Clear
1:35 AM 69.8 °F - 64.4 °F 83% 29.98 in 10.0 mi Calm Calm - N/A   Clear
1:55 AM 69.8 °F - 64.4 °F 83% 29.97 in 10.0 mi North 3.5 mph - N/A   Clear
2:15 AM 69.8 °F - 64.4 °F 83% 29.97 in 7.0 mi North 5.8 mph - N/A   Clear
2:35 AM 69.8 °F - 64.4 °F 83% 29.97 in 7.0 mi North 4.6 mph - N/A   Clear
2:55 AM 69.8 °F - 64.4 °F 83% 29.97 in 7.0 mi North 5.8 mph - N/A   Clear
3:15 AM 68.0 °F - 64.4 °F 88% 29.98 in 7.0 mi North 4.6 mph - N/A   Clear
3:35 AM 68.0 °F - 62.6 °F 83% 29.98 in 7.0 mi North 6.9 mph - N/A   Clear
3:55 AM 68.0 °F - 64.4 °F 88% 29.98 in 7.0 mi North 3.5 mph - N/A   Clear
4:15 AM 68.0 °F - 62.6 °F 83% 29.99 in 7.0 mi NNE 3.5 mph - N/A   Clear
4:35 AM 68.0 °F - 62.6 °F 83% 29.99 in 7.0 mi NNE 3.5 mph - N/A   Scattered Clouds
4:55 AM 68.0 °F - 62.6 °F 83% 29.99 in 10.0 mi North 4.6 mph - N/A   Mostly Cloudy
5:15 AM 68.0 °F - 62.6 °F 83% 30.00 in 10.0 mi Calm Calm - N/A   Mostly Cloudy
5:35 AM 68.0 °F - 62.6 °F 83% 30.00 in 10.0 mi North 5.8 mph - N/A   Scattered Clouds
5:55 AM 68.0 °F - 62.6 °F 83% 30.01 in 10.0 mi North 3.5 mph - N/A   Clear
6:15 AM 68.0 °F - 60.8 °F 78% 30.01 in 10.0 mi North 4.6 mph - N/A   Clear
6:35 AM 66.2 °F - 60.8 °F 83% 30.02 in 10.0 mi North 5.8 mph - N/A   Clear
6:55 AM 66.2 °F - 60.8 °F 83% 30.02 in 10.0 mi NNE 5.8 mph - N/A   Clear
7:15 AM 66.2 °F - 60.8 °F 83% 30.02 in 10.0 mi NNE 5.8 mph - N/A   Mostly Cloudy
7:35 AM 68.0 °F - 60.8 °F 78% 30.03 in 10.0 mi NNE 6.9 mph - N/A   Mostly Cloudy
7:55 AM 68.0 °F - 60.8 °F 78% 30.03 in 10.0 mi NNE 6.9 mph - N/A   Mostly Cloudy
8:15 AM 68.0 °F - 60.8 °F 78% 30.03 in 10.0 mi NNE 6.9 mph - N/A   Mostly Cloudy
8:35 AM 69.8 °F - 60.8 °F 73% 30.04 in 10.0 mi North 8.1 mph - N/A   Mostly Cloudy
8:55 AM 69.8 °F - 60.8 °F 73% 30.04 in 10.0 mi NNE 6.9 mph - N/A   Scattered Clouds
9:15 AM 71.6 °F - 60.8 °F 69% 30.03 in 10.0 mi NNE 6.9 mph - N/A   Clear
9:35 AM 71.6 °F - 60.8 °F 69% 30.04 in 10.0 mi North 8.1 mph - N/A   Scattered Clouds
9:55 AM 73.4 °F - 60.8 °F 65% 30.04 in 10.0 mi East 4.6 mph - N/A   Scattered Clouds
10:15 AM 73.4 °F - 60.8 °F 65% 30.04 in 10.0 mi NE 5.8 mph - N/A   Clear
10:35 AM 73.4 °F - 60.8 °F 65% 30.04 in 10.0 mi North 9.2 mph - N/A   Scattered Clouds
10:55 AM 73.4 °F - 60.8 °F 65% 30.05 in 10.0 mi North 8.1 mph - N/A   Scattered Clouds
11:15 AM 77.0 °F - 59.0 °F 54% 30.04 in 10.0 mi North 8.1 mph - N/A   Clear
11:35 AM 73.4 °F - 59.0 °F 61% 30.04 in 10.0 mi NNE 8.1 mph - N/A   Clear
11:55 AM 77.0 °F - 59.0 °F 54% 30.04 in 1.2 mi NNE 6.9 mph - N/A   Haze
12:15 PM 77.0 °F - 59.0 °F 54% 30.04 in 0.5 mi NNE 4.6 mph - N/A   Haze
12:35 PM 78.8 °F - 59.0 °F 51% 30.03 in 0.5 mi North 5.8 mph - N/A   Haze
12:55 PM 78.8 °F - 55.4 °F 44% 30.03 in 0.8 mi North 9.2 mph - N/A   Haze
1:15 PM 80.6 °F 80.5 °F 55.4 °F 42% 30.02 in 10.0 mi NNE 8.1 mph - N/A   Scattered Clouds
1:35 PM 80.6 °F 80.3 °F 53.6 °F 39% 30.02 in 10.0 mi NNE 9.2 mph - N/A   Scattered Clouds
1:55 PM 78.8 °F - 53.6 °F 42% 30.01 in 10.0 mi NNE 8.1 mph - N/A   Clear
2:55 PM 80.6 °F 80.3 °F 53.6 °F 39% 30.01 in 10.0 mi NNE 9.2 mph - N/A   Clear
3:15 PM 80.6 °F 80.3 °F 53.6 °F 39% 30.01 in 10.0 mi North 12.7 mph 17.3 mph N/A   Scattered Clouds
3:35 PM 78.8 °F - 55.4 °F 44% 30.01 in 10.0 mi North 8.1 mph 16.1 mph N/A   Scattered Clouds
3:55 PM 78.8 °F - 53.6 °F 42% 30.00 in 10.0 mi North 9.2 mph - N/A   Scattered Clouds
4:15 PM 78.8 °F - 55.4 °F 44% 30.00 in 10.0 mi North 9.2 mph - N/A   Clear
4:35 PM 78.8 °F - 53.6 °F 42% 30.01 in 10.0 mi North 10.4 mph - N/A   Scattered Clouds
4:55 PM 78.8 °F - 53.6 °F 42% 30.01 in 10.0 mi North 12.7 mph - N/A   Clear
5:15 PM 78.8 °F - 51.8 °F 39% 30.01 in 10.0 mi North 10.4 mph - N/A   Clear
5:35 PM 77.0 °F - 51.8 °F 41% 30.01 in 10.0 mi North 11.5 mph - N/A   Clear
5:55 PM 77.0 °F - 53.6 °F 44% 30.01 in 10.0 mi North 9.2 mph - N/A   Clear
6:15 PM 77.0 °F - 53.6 °F 44% 30.01 in 10.0 mi North 10.4 mph - N/A   Clear
6:35 PM 75.2 °F - 53.6 °F 47% 30.01 in 10.0 mi North 8.1 mph - N/A   Clear
6:55 PM 73.4 °F - 53.6 °F 50% 30.01 in 10.0 mi North 8.1 mph - N/A   Clear
7:15 PM 71.6 °F - 53.6 °F 53% 30.02 in 10.0 mi North 5.8 mph - N/A   Clear
7:35 PM 69.8 °F - 53.6 °F 56% 30.03 in 10.0 mi North 4.6 mph - N/A   Clear
7:55 PM 68.0 °F - 55.4 °F 64% 30.03 in 10.0 mi North 4.6 mph - N/A   Clear
8:15 PM 68.0 °F - 55.4 °F 64% 30.04 in 10.0 mi North 5.8 mph - N/A   Scattered Clouds
8:35 PM 68.0 °F - 55.4 °F 64% 30.04 in 10.0 mi North 3.5 mph - N/A   Mostly Cloudy
8:55 PM 66.2 °F - 55.4 °F 68% 30.04 in 10.0 mi North 3.5 mph - N/A   Scattered Clouds
9:15 PM 64.4 °F - 55.4 °F 73% 30.05 in 7.0 mi North 4.6 mph - N/A   Scattered Clouds
9:35 PM 64.4 °F - 55.4 °F 73% 30.05 in 10.0 mi Calm Calm - N/A   Clear
9:55 PM 64.4 °F - 55.4 °F 73% 30.06 in 10.0 mi Calm Calm - N/A   Clear
10:15 PM 64.4 °F - 55.4 °F 73% 30.06 in 10.0 mi Calm Calm - N/A   Clear
10:35 PM 62.6 °F - 55.4 °F 77% 30.06 in 10.0 mi Calm Calm - N/A   Clear
10:55 PM 62.6 °F - 55.4 °F 77% 30.06 in 10.0 mi North 3.5 mph - N/A   Clear
11:15 PM 62.6 °F - 55.4 °F 77% 30.06 in 10.0 mi North 3.5 mph - N/A   Clear
11:35 PM 62.6 °F - 55.4 °F 77% 30.06 in 10.0 mi Calm Calm - N/A   Clear
11:55 PM 62.6 °F - 55.4 °F 77% 30.06 in 10.0 mi Calm Calm - N/A   Clear